Погода в Микрякове

Россия / Республика Марий Эл     56°12′21″N   46°14′18″E
темп.,
°C
ветер,
м/с
пор.,
м/с
влажн.,
%
обл.,
%
осадки,
мм/ч
давл.,
гПа
погр.,
м
13 мая, чт
чт1300:00+16ююв266213 0.0 1024113
03:00+14в247018 0.0 102459
06:00+16вюв387133 0.0 1024241
09:00+21вюв585257 0.0 1023611
12:00+23юв694897 0.0 10221089
15:00+18в128376 0.8 102147
18:00+20юв4117179 0.4 1019515
21:00+17юв4128532 3.0 1018278
14 мая, пт
пт1400:00+15ююв4119159 2.0 1018295
03:00+13ююз22951 3.7 101939
06:00+16ююз2391100 0.0 1020127
09:00+19юз237799 0.0 1020450
12:00+22ю3464100 0.0 10201121
15:00+24ю35565 0.0 10201547
18:00+23ююз116929 0.0 101842
21:00+18вюв227986 0.2 101812
15 мая, сб
сб1500:00+17ююв2286100 0.0 101723
03:00+16ююв3586100 0.0 101793
06:00+18ююв2981100 0.0 1017237
09:00+23ю5953100 0.1 1017489
12:00+26ю6114499 0.0 1016987
15:00+26ю61345100 0.0 10161253
18:00+23ю513563 0.0 1015672
21:00+19ю4146736 0.0 1015352
16 мая, вс
вс1600:00+17ю412735 0.0 1015254
03:00+15ю39779 0.0 1015170
06:00+17ю377794 0.0 1015201
09:00+21ююз3563100 0.0 1015520
12:00+24ююз4656100 0.0 10161040
15:00+25ююз465377 0.0 10151249
18:00+23юз3669100 0.1 1015214
21:00+18зюз2288100 0.5 101528
17 мая, пн
пн1700:00+16юз239127 0.6 101649
03:00+15з11935 0.9 101714
06:00+17з11847 0.0 101899
09:00+22сз11607 0.0 1018539
12:00+26юз12476 0.0 10181266
15:00+27юз12415 0.0 10171688
18:00+25юз115912 0.0 101721
21:00+19всв11736 0.0 101812